sat.trackr.live / text

‹ back to catalog

STARLINK-30909

NORAD 58363 · 2023-177N

PAYLOAD ACTIVE UNKNOWN

§ Identity

Operator
Country
US
Launch date
2023-11-18
Launch site
AFETR
Launch vehicle
Mass (kg)
RCS (m²)

Purposes: comms

External: N2YO · Heavens-Above · Gunter

§ Orbital elements

Epoch: 2026-05-25T02:25:53.759424Z

Period
94.27 min
Inclination
43.0043°
Eccentricity
0.0002517
Mean motion
15.27590593 rev/d
Perigee alt
481.3 km
Apogee alt
484.7 km
Semi-major
6,861.2 km
B*
1.1407e-4
RAAN
279.0643°
Arg perigee
253.5110°
Mean anomaly
106.5466°
Rev number
13,991

§ Raw data

STARLINK-309091 58363U 23177N   26145.10131666  .00002879  00000+0  11407-3 0  99982 58363  43.0043 279.0643 0002517 253.5110 106.5466 15.27590593139911

JSON: /api/v1/satellites/58363 · /tle

For live sub-satellite position, see the globe view (requires WebGL).

§ Visibility from observer

Set your observer location to see the next 7 days of passes ≥ 10°. The values pass through the URL so the page stays shareable.

No JS? Fill the form by hand. The geolocation button needs JavaScript.